When you browse on this site, cookies collect data to enhance your experience and personalize the content and advertising you see.
Visit our Privacy Policy to learn more. By continuing to use the site, you agree to this use of cookies and data.
  • In Portugal
  • List of Countries
  • For 7 days
  • Water Temperature
  • Satellite Maps
  • Weather Map
  • Weather Widgets
  • user-avatar
    Login

    Hourly Weather Polule

    Today, 24 May, Friday

    Time Temperature Precipitation Wind Pressure Humidity
    00:00 +11°C° 0 mm 4 mps 743 mmHg 95%
    01:00 +10°C° 0 mm 4 mps 743 mmHg 95%
    02:00 +10°C° 0 mm 4 mps 743 mmHg 95%
    03:00 +10°C° 0 mm 4 mps 744 mmHg 94%
    04:00 +10°C° 0 mm 4 mps 744 mmHg 93%
    05:00 +10°C° 0 mm 4 mps 744 mmHg 93%
    06:00 +11°C° 0 mm 3 mps 744 mmHg 91%
    07:00 +11°C° 0 mm 3 mps 744 mmHg 89%
    08:00 +12°C° 0 mm 3 mps 744 mmHg 88%
    09:00 +13°C° 0 mm 3 mps 744 mmHg 82%
    10:00 +16°C° 0 mm 3 mps 744 mmHg 77%
    11:00 +18°C° 0 mm 3 mps 744 mmHg 71%
    12:00 +19°C° 0 mm 3 mps 744 mmHg 71%
    13:00 +19°C° 0 mm 3 mps 743 mmHg 70%
    14:00 +20°C° 0 mm 3 mps 743 mmHg 69%
    15:00 +20°C° 0 mm 3 mps 743 mmHg 68%
    16:00 +20°C° 0 mm 4 mps 743 mmHg 68%
    17:00 +20°C° 0 mm 4 mps 743 mmHg 67%
    18:00 +18°C° 0 mm 3 mps 742 mmHg 71%
    19:00 +17°C° 0 mm 3 mps 742 mmHg 75%
    20:00 +14°C° 0 mm 3 mps 742 mmHg 79%
    21:00 +13°C° 0 mm 3 mps 742 mmHg 80%
    22:00 +12°C° 0 mm 2 mps 742 mmHg 81%
    23:00 +10°C° 0 mm 2 mps 742 mmHg 82%

    Tomorrow, 25 May, Saturday

    Time Temperature Precipitation Wind Pressure Humidity
    00:00 +10°C° 0 mm 2 mps 742 mmHg 81%
    01:00 +9°C° 0 mm 2 mps 742 mmHg 80%
    02:00 +10°C° 0 mm 1 mps 742 mmHg 78%
    03:00 +10°C° 0 mm 1 mps 742 mmHg 77%
    04:00 +9°C° 0 mm 2 mps 742 mmHg 76%
    05:00 +9°C° 0 mm 2 mps 741 mmHg 75%
    06:00 +12°C° 0 mm 2 mps 741 mmHg 74%
    07:00 +13°C° 0 mm 3 mps 741 mmHg 73%
    08:00 +15°C° 0 mm 4 mps 741 mmHg 71%
    09:00 +17°C° 0 mm 4 mps 741 mmHg 70%
    10:00 +17°C° 0 mm 4 mps 741 mmHg 69%
    11:00 +18°C° 0 mm 4 mps 741 mmHg 68%
    12:00 +17°C° 0.2 mm 5 mps 741 mmHg 67%
    13:00 +19°C° 0.2 mm 5 mps 741 mmHg 66%
    14:00 +19°C° 0.2 mm 6 mps 741 mmHg 65%
    15:00 +19°C° 0 mm 6 mps 741 mmHg 65%
    16:00 +17°C° 0 mm 6 mps 741 mmHg 66%
    17:00 +16°C° 0 mm 6 mps 741 mmHg 66%
    18:00 +15°C° 0 mm 5 mps 741 mmHg 72%
    19:00 +13°C° 0 mm 4 mps 741 mmHg 78%
    20:00 +11°C° 0 mm 3 mps 741 mmHg 84%
    21:00 +10°C° 0 mm 3 mps 741 mmHg 88%
    22:00 +9°C° 0 mm 2 mps 741 mmHg 92%
    23:00 +8°C° 0 mm 2 mps 742 mmHg 96%

    Day after tomorrow, 26 May, Sunday

    Time Temperature Precipitation Wind Pressure Humidity
    00:00 +7°C° 0 mm 2 mps 742 mmHg 96%
    01:00 +7°C° 0 mm 2 mps 742 mmHg 96%
    02:00 +7°C° 0 mm 2 mps 742 mmHg 96%
    03:00 +7°C° 0 mm 2 mps 742 mmHg 96%
    04:00 +7°C° 0 mm 2 mps 742 mmHg 95%
    05:00 +7°C° 0 mm 2 mps 742 mmHg 95%
    06:00 +9°C° 0 mm 3 mps 741 mmHg 90%
    07:00 +11°C° 0 mm 4 mps 741 mmHg 84%
    08:00 +13°C° 0 mm 4 mps 741 mmHg 78%
    09:00 +14°C° 0 mm 4 mps 741 mmHg 73%
    10:00 +15°C° 0 mm 4 mps 741 mmHg 68%
    11:00 +16°C° 0 mm 5 mps 741 mmHg 63%
    12:00 +17°C° 0.1 mm 5 mps 740 mmHg 61%
    13:00 +17°C° 0.1 mm 5 mps 740 mmHg 59%
    14:00 +19°C° 0.1 mm 6 mps 740 mmHg 56%
    15:00 +17°C° 0.4 mm 5 mps 740 mmHg 65%
    16:00 +15°C° 0.4 mm 5 mps 739 mmHg 74%
    17:00 +14°C° 0.4 mm 5 mps 739 mmHg 83%
    18:00 +13°C° 0.1 mm 4 mps 739 mmHg 86%
    19:00 +12°C° 0.1 mm 3 mps 739 mmHg 88%
    20:00 +13°C° 0.1 mm 2 mps 739 mmHg 90%
    21:00 +12°C° 0 mm 2 mps 739 mmHg 92%
    22:00 +10°C° 0 mm 2 mps 740 mmHg 94%
    23:00 +9°C° 0 mm 2 mps 740 mmHg 95%

    27 May, Monday

    Time Temperature Precipitation Wind Pressure Humidity
    00:00 +9°C° 0.1 mm 3 mps 740 mmHg 94%
    01:00 +10°C° 0.1 mm 3 mps 740 mmHg 93%
    02:00 +10°C° 0.1 mm 3 mps 740 mmHg 92%
    03:00 +11°C° 0.1 mm 3 mps 740 mmHg 93%
    04:00 +11°C° 0.1 mm 3 mps 739 mmHg 93%
    05:00 +11°C° 0.1 mm 3 mps 739 mmHg 94%
    06:00 +12°C° 0 mm 4 mps 739 mmHg 91%
    07:00 +12°C° 0 mm 4 mps 739 mmHg 88%
    08:00 +13°C° 0 mm 5 mps 739 mmHg 85%
    09:00 +15°C° 0 mm 6 mps 739 mmHg 79%
    10:00 +17°C° 0 mm 6 mps 739 mmHg 74%
    11:00 +18°C° 0 mm 7 mps 739 mmHg 68%
    12:00 +20°C° 0.2 mm 7 mps 739 mmHg 68%
    13:00 +20°C° 0.2 mm 7 mps 739 mmHg 69%
    14:00 +20°C° 0.2 mm 7 mps 739 mmHg 69%
    15:00 +20°C° 0.8 mm 7 mps 738 mmHg 73%
    16:00 +20°C° 0.8 mm 6 mps 738 mmHg 77%
    17:00 +19°C° 0.8 mm 6 mps 738 mmHg 81%
    18:00 +17°C° 0.9 mm 5 mps 738 mmHg 84%
    19:00 +18°C° 0.9 mm 4 mps 738 mmHg 87%
    20:00 +17°C° 0.9 mm 4 mps 738 mmHg 91%
    21:00 +16°C° 0.2 mm 3 mps 739 mmHg 93%
    22:00 +14°C° 0.2 mm 3 mps 739 mmHg 94%
    23:00 +13°C° 0.2 mm 3 mps 740 mmHg 96%

    28 May, Tuesday

    Time Temperature Precipitation Wind Pressure Humidity
    00:00 +12°C° 0 mm 3 mps 740 mmHg 97%
    01:00 +13°C° 0 mm 2 mps 740 mmHg 97%
    02:00 +12°C° 0 mm 2 mps 741 mmHg 97%
    03:00 +10°C° 0 mm 2 mps 741 mmHg 97%
    04:00 +10°C° 0 mm 2 mps 741 mmHg 97%
    05:00 +9°C° 0 mm 2 mps 741 mmHg 97%
    06:00 +11°C° 0 mm 1 mps 742 mmHg 91%
    07:00 +13°C° 0 mm 1 mps 742 mmHg 86%
    08:00 +14°C° 0 mm 1 mps 742 mmHg 81%
    09:00 +15°C° 0 mm 1 mps 742 mmHg 78%
    10:00 +16°C° 0 mm 1 mps 742 mmHg 75%
    11:00 +18°C° 0 mm 1 mps 742 mmHg 72%
    12:00 +18°C° 0 mm 2 mps 742 mmHg 70%
    13:00 +18°C° 0 mm 2 mps 742 mmHg 69%
    14:00 +19°C° 0 mm 2 mps 742 mmHg 68%
    15:00 +18°C° 0.6 mm 3 mps 741 mmHg 75%
    16:00 +17°C° 0.6 mm 3 mps 741 mmHg 83%
    17:00 +17°C° 0.6 mm 3 mps 740 mmHg 90%
    18:00 +16°C° 1.5 mm 3 mps 740 mmHg 92%
    19:00 +16°C° 1.5 mm 3 mps 740 mmHg 95%
    20:00 +14°C° 1.5 mm 3 mps 739 mmHg 97%
    21:00 +14°C° 0.6 mm 3 mps 739 mmHg 97%
    22:00 +14°C° 0.6 mm 4 mps 738 mmHg 97%
    23:00 +14°C° 0.6 mm 4 mps 738 mmHg 97%

    29 May, Wednesday

    Time Temperature Precipitation Wind Pressure Humidity
    00:00 +14°C° 0.4 mm 4 mps 738 mmHg 98%
    01:00 +14°C° 0.4 mm 3 mps 737 mmHg 98%
    02:00 +14°C° 0.4 mm 3 mps 737 mmHg 98%
    03:00 +14°C° 0.3 mm 3 mps 737 mmHg 98%
    04:00 +14°C° 0.3 mm 4 mps 737 mmHg 97%
    05:00 +14°C° 0.3 mm 4 mps 737 mmHg 97%
    06:00 +13°C° 0.1 mm 5 mps 737 mmHg 95%
    07:00 +11°C° 0.1 mm 6 mps 738 mmHg 94%
    08:00 +10°C° 0.1 mm 7 mps 738 mmHg 93%
    09:00 +11°C° 0 mm 6 mps 739 mmHg 89%
    10:00 +13°C° 0 mm 6 mps 740 mmHg 86%
    11:00 +14°C° 0 mm 5 mps 741 mmHg 83%
    12:00 +15°C° 0.1 mm 5 mps 741 mmHg 80%
    13:00 +15°C° 0.1 mm 4 mps 742 mmHg 78%
    14:00 +17°C° 0.1 mm 4 mps 742 mmHg 76%
    15:00 +15°C° 0 mm 4 mps 743 mmHg 76%
    16:00 +14°C° 0 mm 5 mps 743 mmHg 77%
    17:00 +14°C° 0 mm 5 mps 743 mmHg 78%
    18:00 +13°C° 0 mm 4 mps 743 mmHg 78%
    19:00 +12°C° 0 mm 3 mps 743 mmHg 78%
    20:00 +11°C° 0 mm 3 mps 744 mmHg 78%
    21:00 +10°C° 0 mm 3 mps 744 mmHg 77%
    22:00 +10°C° 0 mm 2 mps 744 mmHg 76%
    23:00 +10°C° 0 mm 2 mps 745 mmHg 76%
    Show more